Flag for U.S.A. Weather past 2 weeks in Newark, New Jersey, U.S.A.

Now
70 °F

Passing clouds.


Feels Like: 71 °F
Forecast: 68 / 81 °F
Wind: 7 mph from Southeast

Location: Newark International Airport

Current Time: Sep 20, 2014 at 10:09:24 PM

Latest Report: Sep 20, 2014 at 8:51 PM


Visibility: 10 mi

Pressure: 30.11 "Hg

Humidity: 79%

Dew point: 63 °F

Location of NewarkLocation

Historic Weather in Newark — Graph

°F

Newark temperature yesterday

Maximum temperature yesterday: 65 °F (at 1:51 PM)
Minimum temperature yesterday: 54 °F (at 6:51 AM)
Average temperature yesterday: 61 °F

Past Weeks' High & Low Weather Summary

 TemperatureHumidityPressure
High93 °F (Sep 6, 2:51 PM)97% (Sep 13, 7:51 PM)30.37 "Hg (Sep 13, 7:51 PM)
Low53 °F (Sep 14, 6:51 AM)32% (Sep 17, 2:51 PM)29.82 "Hg (Sep 11, 3:51 PM)
Average68 °F65%30.10 "Hg
* Reported Sep 5 8:51 PM — Sep 20 8:51 PM, Newark, Weather by CustomWeather, © 2014

Note: Actual official high and low records may vary slightly from our data, if they occured in-between our weather recording intervals... More about our weather records

Advertising

Newark weather history for previous 24 hours

 ConditionsComfort  
Time TempWeatherWind HumidityBarometerVisibility
8:51 PM
Sep 20
70 °FPassing clouds.7 mph79%30.11 "Hg10 mi
7:51 PM70 °FScattered clouds.7 mph76%30.11 "Hg10 mi
6:51 PM72 °FScattered clouds.9 mph66%30.11 "Hg10 mi
5:51 PM73 °FScattered clouds.9 mph59%30.13 "Hg10 mi
4:51 PM73 °FPartly sunny.12 mph64%30.15 "Hg10 mi
3:51 PM73 °FMostly cloudy.14 mph64%30.16 "Hg10 mi
2:51 PM73 °FPartly sunny.16 mph64%30.17 "Hg10 mi
1:51 PM73 °FBroken clouds.13 mph62%30.19 "Hg10 mi
8:51 AM65 °FPartly sunny.No wind70%30.29 "Hg10 mi
7:51 AM63 °FBroken clouds.No wind70%30.30 "Hg10 mi
6:51 AM58 °FPartly cloudy.3 mph78%30.31 "Hg10 mi
5:51 AM61 °FPassing clouds.6 mph72%30.31 "Hg10 mi
4:51 AM64 °FPartly cloudy.No wind70%30.31 "Hg10 mi
3:51 AM64 °FPartly cloudy.No wind70%30.31 "Hg10 mi
2:51 AM63 °FPassing clouds.5 mph70%30.32 "Hg10 mi
1:51 AM63 °FPassing clouds.7 mph68%30.32 "Hg10 mi
12:51 AM62 °FPassing clouds.6 mph67%30.33 "Hg10 mi
11:51 PM
Sep 19
62 °FPartly cloudy.6 mph67%30.35 "Hg10 mi
10:51 PM62 °FOvercast.8 mph67%30.37 "Hg10 mi
Weather by CustomWeather, © 2014

See weather overviewHow to use our weather pages